Location: Unspecified
(0.0000°N, 0.0000°E)
Time: 21:21:14
(UTC+00:00)

Daily predictions for brighter satellites

Satellite Brightness Start Highest point End
(mag) Time Altitude Azimuth Time Altitude Azimuth Time Altitude Azimuth
Ariane H10 3.7 17:37:21 10° W 17:41:20 66° S 18:03:16 10° E
Landsat 5 3.4 18:29:27 10° NNE 18:33:25 56° ESE 18:37:15 10° S
KORONAS-FOTON 3.9 18:30:48 10° S 18:34:34 54° E 18:38:21 10° NNE
Cosmos 2084 3.3 18:32:59 10° SSW 18:37:03 61° ESE 18:40:56 10° NNE
YAOGAN 1 4.0 18:34:31 10° SE 18:37:39 20° ENE 18:40:46 10° NNE
Cosmos 2278 Rocket 2.3 18:35:01 10° NNW 18:40:39 81° WSW 18:46:18 10° SSE
ARIANE 5 R/B 1.7 18:38:53 10° WSW 18:40:39 38° S 18:43:02 11° E
Meteor 1-15 Rocket 4.4 18:34:57 10° N 18:40:47 62° E 18:46:32 10° SSE
USA 281 3.5 18:35:33 10° SE 18:41:52 52° ENE 18:48:11 10° N
Meteor 1-12 Rocket 4.3 18:41:30 10° N 18:47:08 84° W 18:52:53 10° S
CZ-4C R/B 3.4 18:44:11 10° NNE 18:47:25 40° ESE 18:50:42 10° S
PSLV R/B 3.9 18:47:13 10° S 18:50:55 72° W 18:54:32 10° NNW
Cosmos 1726 2.5 18:49:06 10° NNW 18:52:38 61° W 18:56:10 10° S
Cosmos 2266 Rocket 4.0 18:48:57 10° N 18:54:54 57° E 19:00:59 10° SSE
Iridium 51 4.5 18:54:28 10° S 18:58:38 85° E 19:03:09 10° N
Cosmos 1782 Rocket 3.5 18:56:07 10° N 19:00:33 74° E 19:04:59 10° S
Cosmos 1943 Rocket 2.9 18:59:43 10° NNE 19:04:39 33° ENE 19:07:24 21° ESE
H-2A R/B 3.9 19:03:07 10° ENE 19:04:36 15° ENE 19:04:36 15° ENE
CZ-4 R/B 2.0 19:05:48 21° SE 19:08:02 38° ENE 19:11:54 10° N
ARIANE 5 DEB (SYLDA) 3.4 19:07:34 10° W 19:11:13 90° SE 19:16:48 19° E
Cosmos 1242 Rocket 2.3 19:08:22 10° N 19:11:41 58° E 19:13:17 27° SSE
SL-14 R/B 3.5 19:09:26 17° SSE 19:12:07 43° E 19:15:46 10° NNE
Cosmos 1378 Rocket 3.5 19:07:52 10° S 19:12:18 74° E 19:16:42 10° N
SWIFT 2.2 19:08:58 10° WSW 19:13:12 83° SSE 19:15:44 23° ENE
Meteor 1-22 Rocket 4.1 19:09:07 10° N 19:14:46 90° W 19:20:14 10° S
Sich 1 Rocket 4.3 19:16:37 10° NNE 19:20:44 34° E 19:21:09 33° E
Cosmos 1674 Rocket 3.6 19:16:29 10° S 19:20:47 79° W 19:25:05 10° N
CZ-4B R/B 3.6 19:20:23 10° S 19:25:52 65° WSW 19:31:25 10° NNW
ASTRO E2 2.9 19:23:59 10° WSW 19:27:52 65° NW 19:30:03 24° NE
USA 267 3.2 19:24:10 10° NE 19:30:36 63° SE 19:37:04 10° SSW
Okean 2 Rocket 4.0 19:28:24 10° NNE 19:31:26 31° ENE 19:31:26 31° ENE
Cosmos 1758 3.5 19:29:48 10° N 19:33:23 49° ENE 19:33:23 49° ENE
ARIANE 44L R/B 3.5 19:15:30 10° W 19:34:25 71° N 19:36:08 38° ENE
Spelda 30 2.4 19:29:12 10° W 19:35:09 84° N 19:35:22 75° ENE
Cosmos 1417 Rocket 4.3 19:30:54 10° S 19:37:00 70° E 19:43:04 10° N
OBJECT-B 3.2 19:40:14 13° N 19:40:14 13° N 19:40:35 10° N
Okean-O 4.1 19:39:43 23° NE 19:39:43 23° NE 19:41:57 10° NNE
Iridium 4 Rocket 3.6 19:34:05 10° NNE 19:39:34 55° E 19:40:33 48° SE
Okean O Rocket 2.6 19:38:19 15° S 19:41:43 44° WSW 19:45:53 10° NNW
JB-3 4.1 19:40:03 10° N 19:43:50 86° WNW 19:43:50 86° WNW
Cosmos 1371 Rocket 3.9 19:41:16 10° SSW 19:46:27 82° WNW 19:51:38 10° N
Ariane H10+ 2.7 19:42:25 10° WNW 19:50:01 38° NNW 19:51:08 32° NNE
Meteor 2-17 Rocket 4.3 19:44:58 10° N 19:51:01 85° W 19:54:05 31° S
ARGOS Delta rocket 3.9 19:50:03 10° N 19:54:24 65° W 19:55:56 38° SSW
CSL-04 Rocket 4.1 19:55:36 46° NE 19:55:36 46° NE 20:00:09 10° N
OAO 3 Copernicus 4.1 19:50:35 10° NW 19:55:39 88° SW 19:55:44 87° S
Cosmos 1238 Rocket 4.0 19:54:48 10° N 20:00:51 59° ENE 20:00:51 59° ENE
CZ-2C R/B 2.3 19:58:32 10° NW 20:01:23 43° WNW 20:01:23 43° WNW
Cosmos 2369 Rocket 3.2 20:03:49 10° N 20:07:11 32° NNE 20:07:11 32° NNE
ARIANE 5 DEB (SYLDA) 4.1 20:19:25 10° WSW 20:21:24 35° WSW 20:21:24 35° WSW
ARIANE 5 R/B 4.2 20:28:57 10° WSW 20:30:14 15° WSW 20:30:14 15° WSW
ATLAS 5 CENTAUR R/B 3.3 20:24:56 10° W 20:38:49 37° SW 20:38:49 37° SW
H-2A R/B 4.5 20:38:22 10° NNW 20:41:38 21° WNW 20:41:38 21° WNW
Cosmos 1943 Rocket 4.4 20:44:45 10° WNW 20:48:05 16° WSW 20:48:58 16° WSW
ARIANE 5 R/B 4.5 21:01:25 10° W 21:19:04 48° WNW 21:19:04 48° WNW
